Hourly Data Report for April 22, 2018

TORONTO CITY
ONTARIO
Current Station Operator: ECCC - MSC

43°40'00.000" N
79°24'00.000" W
112.50 m
6158355
71508
XTO

Download Data

Hourly Data (April 2018)
Hourly Data Report for April 22, 2018
TIME
LST
Temp Definition
°C
Dew Point Definition
°C
Rel Hum Definition
%
Precip. Amount Definition
mm

Wind Dir Definition
10's deg

Wind Spd Definition
km/h
Visibility Definition
km
Stn Press Definition
kPa
Hmdx Definition


Wind Chill Definition


Weather Definition


00:00 7.3 -7.0 35 0.0 LegendMM LegendMM   101.59     LegendNANA
01:00 6.2 -6.0 41 0.0 LegendMM LegendMM   101.58     LegendNANA
02:00 6.0 -5.9 42 0.0 LegendMM LegendMM   101.55     LegendNANA
03:00 5.4 -5.4 46 0.0 LegendMM LegendMM   101.55     LegendNANA
04:00 3.9 -3.9 57 0.0 LegendMM LegendMM   101.58     LegendNANA
05:00 3.6 -3.9 58 0.0 LegendMM LegendMM   101.59     LegendNANA
06:00 4.7 -3.2 56 0.0 LegendMM LegendMM   101.63     LegendNANA
07:00 7.3 -4.8 42 0.0 LegendMM LegendMM   101.68     LegendNANA
08:00 9.7 -6.9 30 0.0 LegendMM LegendMM   101.75     LegendNANA
09:00 12.1 -7.5 25 0.0 LegendMM LegendMM   101.77     LegendNANA
10:00 11.8 -9.2 22 0.0 LegendMM LegendMM   101.79     LegendNANA
11:00 13.6 -8.1 21 0.0 LegendMM LegendMM   101.76     LegendNANA
12:00 13.1 -8.6 21 0.0 LegendMM LegendMM   101.71     LegendNANA
13:00 14.3 -7.3 22 0.0 LegendMM LegendMM   101.64     LegendNANA
14:00 13.5 -10.2 18 0.0 LegendMM LegendMM   101.59     LegendNANA
15:00 15.0 -9.2 18 0.0 LegendMM LegendMM   101.52     LegendNANA
16:00 13.9 -11.4 16 0.0 LegendMM LegendMM   101.48     LegendNANA
17:00 13.4 -11.0 17 0.0 LegendMM LegendMM   101.46     LegendNANA
18:00 13.1 -12.8 15 0.0 LegendMM LegendMM   101.47     LegendNANA
19:00 12.6 -12.5 16 0.0 LegendMM LegendMM   101.48     LegendNANA
20:00 11.4 -11.2 19 0.0 LegendMM LegendMM   101.53     LegendNANA
21:00 11.4 -10.7 20 0.0 LegendMM LegendMM   101.54     LegendNANA
22:00 11.2 -8.2 25 0.0 LegendMM LegendMM   101.51     LegendNANA
23:00 10.3 -6.5 30 0.0 LegendMM LegendMM   101.51     LegendNANA

Notes on Data Quality.

Legend

  • E = Estimated
  • M = Missing
  • NA = Not Available*
  • [empty] = Indicates an unobserved value
Date modified: